| time (UTC) | temp F | wind direction | speed MPH | gust MPH | rain 1hr in | rain 24hr in | rain mn in | humidity % | barometer mb |
| 20260906234628 | 81 | 243 | 1.0 | 4.0 | 0.00 | 0.00 | 0.00 | 29 | 1010.4 |
| 20260906233621 | 81 | 243 | 4.0 | 5.0 | 0.00 | 0.00 | 0.00 | 29 | 1010.7 |
| 20260906232631 | 81 | 236 | 4.0 | 8.0 | 0.00 | 0.00 | 0.00 | 29 | 1010.8 |
| 20260906231621 | 81 | 236 | 5.0 | 10.0 | 0.00 | 0.00 | 0.00 | 27 | 1010.6 |
| 20260906230616 | 81 | 250 | 6.0 | 12.0 | 0.00 | 0.00 | 0.00 | 27 | 1010.9 |
| 20260906225616 | 80 | 235 | 8.0 | 14.0 | 0.00 | 0.00 | 0.00 | 27 | 1011.2 |
| 20260906224626 | 81 | 236 | 9.0 | 14.0 | 0.00 | 0.00 | 0.00 | 26 | 1011.3 |
| 20260906223618 | 81 | 252 | 8.0 | 12.0 | 0.00 | 0.00 | 0.00 | 25 | 1011.4 |
| 20260906222612 | 82 | 212 | 10.0 | 15.0 | 0.00 | 0.00 | 0.00 | 24 | 1011.3 |
| 20260906221622 | 82 | 219 | 12.0 | 16.0 | 0.00 | 0.00 | 0.00 | 25 | 1011.5 |
| 20260906220634 | 82 | 219 | 12.0 | 21.0 | 0.00 | 0.00 | 0.00 | 22 | 1011.6 |
| 20260906215615 | 83 | 254 | 13.0 | 19.0 | 0.00 | 0.00 | 0.00 | 22 | 1011.7 |
| 20260906214624 | 82 | 230 | 9.0 | 16.0 | 0.00 | 0.00 | 0.00 | 25 | 1011.7 |
| 20260906213639 | 82 | 216 | 9.0 | 17.0 | 0.00 | 0.00 | 0.00 | 25 | 1011.7 |
| 20260906212628 | 82 | 217 | 9.0 | 15.0 | 0.00 | 0.00 | 0.00 | 25 | 1011.9 |
| 20260906211618 | 82 | 250 | 10.0 | 15.0 | 0.00 | 0.00 | 0.00 | 26 | 1011.9 |
| 20260906210628 | 82 | 229 | 13.0 | 19.0 | 0.00 | 0.00 | 0.00 | 24 | 1011.9 |
| 20260906205615 | 82 | 238 | 7.0 | 14.0 | 0.00 | 0.00 | 0.00 | 26 | 1012.0 |
| 20260906204624 | 81 | 215 | 7.0 | 22.0 | 0.00 | 0.00 | 0.00 | 26 | 1012.2 |
| 20260906203614 | 81 | 264 | 10.0 | 13.0 | 0.00 | 0.00 | 0.00 | 26 | 1012.3 |
| 20260906202630 | 81 | 210 | 10.0 | 17.0 | 0.00 | 0.00 | 0.00 | 26 | 1012.5 |
| 20260906201619 | 81 | 241 | 10.0 | 17.0 | 0.00 | 0.00 | 0.00 | 28 | 1012.6 |
| 20260906200651 | 81 | 241 | 9.0 | 17.0 | 0.00 | 0.00 | 0.00 | 27 | 1012.7 |
| 20260906195615 | 82 | 203 | 9.0 | 13.0 | 0.00 | 0.00 | 0.00 | 25 | 1012.8 |
| 20260906194630 | 82 | 215 | 9.0 | 14.0 | 0.00 | 0.00 | 0.00 | 22 | 1013.0 |
| 20260906193622 | 82 | 242 | 7.0 | 13.0 | 0.00 | 0.00 | 0.00 | 21 | 1013.3 |
| 20260906192613 | 82 | 233 | 12.0 | 19.0 | 0.00 | 0.00 | 0.00 | 20 | 1013.3 |
| 20260906191624 | 82 | 207 | 11.0 | 19.0 | 0.00 | 0.00 | 0.00 | 18 | 1013.3 |
| 20260906190619 | 82 | 202 | 10.0 | 20.0 | 0.00 | 0.00 | 0.00 | 20 | 1013.6 |
| 20260906185623 | 81 | 234 | 11.0 | 19.0 | 0.00 | 0.00 | 0.00 | 21 | 1013.6 |
| 20260906184635 | 81 | 234 | 12.0 | 16.0 | 0.00 | 0.00 | 0.00 | 18 | 1013.8 |
| 20260906183624 | 81 | 201 | 6.0 | 17.0 | 0.00 | 0.00 | 0.00 | 19 | 1013.8 |
| 20260906182619 | 81 | 200 | 7.0 | 19.0 | 0.00 | 0.00 | 0.00 | 20 | 1013.9 |
| 20260906181629 | 80 | 189 | 8.0 | 18.0 | 0.00 | 0.00 | 0.00 | 21 | 1014.0 |
| 20260906180623 | 81 | 221 | 11.0 | 17.0 | 0.00 | 0.00 | 0.00 | 19 | 1014.2 |
| 20260906175645 | 81 | 235 | 7.0 | 13.0 | 0.00 | 0.00 | 0.00 | 21 | 1014.3 |
| 20260906174634 | 80 | 209 | 9.0 | 18.0 | 0.00 | 0.00 | 0.00 | 20 | 1014.6 |
| 20260906173622 | 80 | 210 | 10.0 | 16.0 | 0.00 | 0.00 | 0.00 | 23 | 1014.7 |
| 20260906172617 | 79 | 165 | 12.0 | 17.0 | 0.00 | 0.00 | 0.00 | 24 | 1014.8 |
| 20260906171648 | 78 | 251 | 6.0 | 13.0 | 0.00 | 0.00 | 0.00 | 30 | 1014.8 |
| 20260906170615 | 77 | 169 | 2.0 | 11.0 | 0.00 | 0.00 | 0.00 | 30 | 1014.9 |
| 20260906165618 | 76 | 144 | 7.0 | 12.0 | 0.00 | 0.00 | 0.00 | 33 | 1015.0 |
| 20260906164631 | 76 | 135 | 7.0 | 11.0 | 0.00 | 0.00 | 0.00 | 35 | 1015.0 |
| 20260906163622 | 76 | 180 | 6.0 | 11.0 | 0.00 | 0.00 | 0.00 | 34 | 1015.1 |
| 20260906162612 | 74 | 153 | 6.0 | 11.0 | 0.00 | 0.00 | 0.00 | 34 | 1015.2 |
| 20260906161643 | 74 | 161 | 3.0 | 8.0 | 0.00 | 0.00 | 0.00 | 37 | 1015.3 |
| 20260906160616 | 73 | 161 | 6.0 | 9.0 | 0.00 | 0.00 | 0.00 | 36 | 1015.2 |
| 20260906155618 | 73 | 133 | 6.0 | 9.0 | 0.00 | 0.00 | 0.00 | 36 | 1015.2 |
| 20260906154627 | 73 | 120 | 3.0 | 6.0 | 0.00 | 0.00 | 0.00 | 34 | 1015.2 |
| 20260906153619 | 72 | 120 | 2.0 | 4.0 | 0.00 | 0.00 | 0.00 | 37 | 1015.3 |
| 20260906152613 | 71 | 120 | 4.0 | 7.0 | 0.00 | 0.00 | 0.00 | 37 | 1015.5 |
| 20260906151623 | 70 | 115 | 3.0 | 6.0 | 0.00 | 0.00 | 0.00 | 37 | 1015.4 |
| 20260906150633 | 70 | 115 | 3.0 | 7.0 | 0.00 | 0.00 | 0.00 | 39 | 1015.5 |
| 20260906145615 | 69 | 116 | 4.0 | 6.0 | 0.00 | 0.00 | 0.00 | 39 | 1015.4 |
| 20260906144629 | 69 | 116 | 6.0 | 8.0 | 0.00 | 0.00 | 0.00 | 38 | 1015.2 |
| 20260906143639 | 70 | 113 | 3.0 | 4.0 | 0.00 | 0.00 | 0.00 | 34 | 1015.1 |
| 20260906142628 | 70 | 113 | 1.0 | 8.0 | 0.00 | 0.00 | 0.00 | 34 | 1015.0 |
| 20260906141619 | 72 | 280 | 0.0 | 2.0 | 0.00 | 0.00 | 0.00 | 33 | 1015.1 |
| 20260906140614 | 70 | 280 | 0.0 | 0.0 | 0.00 | 0.00 | 0.00 | 35 | 1015.0 |
| 20260906135639 | 69 | 280 | 0.0 | 0.0 | 0.00 | 0.00 | 0.00 | 37 | 1014.9 |
| 20260906134629 | 68 | 280 | 1.0 | 2.0 | 0.00 | 0.00 | 0.00 | 37 | 1014.8 |
| 20260906133620 | 66 | 280 | 0.0 | 7.0 | 0.00 | 0.00 | 0.00 | 39 | 1014.8 |
| 20260906132636 | 65 | 314 | 3.0 | 4.0 | 0.00 | 0.00 | 0.00 | 39 | 1014.7 |
| 20260906131626 | 65 | 314 | 2.0 | 4.0 | 0.00 | 0.00 | 0.00 | 39 | 1014.6 |
| 20260906130618 | 65 | 314 | 4.0 | 6.0 | 0.00 | 0.00 | 0.00 | 40 | 1014.6 |
| 20260906125621 | 65 | 314 | 5.0 | 6.0 | 0.00 | 0.00 | 0.00 | 40 | 1014.5 |
| 20260906124616 | 64 | 315 | 6.0 | 6.0 | 0.00 | 0.00 | 0.00 | 38 | 1014.5 |
| 20260906123628 | 65 | 310 | 7.0 | 9.0 | 0.00 | 0.00 | 0.00 | 38 | 1014.4 |
| 20260906122619 | 64 | 304 | 6.0 | 9.0 | 0.00 | 0.00 | 0.00 | 37 | 1014.4 |
| 20260906121634 | 65 | 304 | 8.0 | 10.0 | 0.00 | 0.00 | 0.00 | 36 | 1014.3 |
| 20260906120645 | 64 | 302 | 8.0 | 10.0 | 0.00 | 0.00 | 0.00 | 37 | 1014.5 |
| 20260906115626 | 64 | 315 | 9.0 | 10.0 | 0.00 | 0.00 | 0.00 | 36 | 1014.4 |
| 20260906114615 | 65 | 306 | 8.0 | 9.0 | 0.00 | 0.00 | 0.00 | 36 | 1014.4 |
| 20260906113626 | 65 | 309 | 8.0 | 10.0 | 0.00 | 0.00 | 0.00 | 35 | 1014.3 |
| 20260906112618 | 66 | 309 | 8.0 | 10.0 | 0.00 | 0.00 | 0.00 | 33 | 1014.3 |
| 20260906111628 | 68 | 295 | 6.0 | 9.0 | 0.00 | 0.00 | 0.00 | 31 | 1014.3 |
| 20260906110619 | 69 | 296 | 5.0 | 9.0 | 0.00 | 0.00 | 0.00 | 30 | 1014.2 |
| 20260906105621 | 69 | 140 | 0.0 | 1.0 | 0.00 | 0.00 | 0.00 | 30 | 1014.2 |
| 20260906104616 | 67 | 313 | 3.0 | 10.0 | 0.00 | 0.00 | 0.00 | 32 | 1014.2 |
| 20260906103647 | 66 | 304 | 10.0 | 12.0 | 0.00 | 0.00 | 0.00 | 33 | 1014.2 |
| 20260906102617 | 67 | 315 | 4.0 | 8.0 | 0.00 | 0.00 | 0.00 | 31 | 1014.0 |
| 20260906101626 | 67 | 312 | 5.0 | 9.0 | 0.00 | 0.00 | 0.00 | 32 | 1014.0 |
| 20260906100620 | 68 | 331 | 8.0 | 9.0 | 0.00 | 0.00 | 0.00 | 31 | 1014.0 |
| 20260906095643 | 69 | 309 | 4.0 | 8.0 | 0.00 | 0.00 | 0.00 | 30 | 1013.9 |
| 20260906094633 | 68 | 321 | 5.0 | 9.0 | 0.00 | 0.00 | 0.00 | 31 | 1013.8 |
| 20260906093622 | 68 | 299 | 5.0 | 10.0 | 0.00 | 0.00 | 0.00 | 31 | 1013.6 |
| 20260906092636 | 68 | 330 | 6.0 | 9.0 | 0.00 | 0.00 | 0.00 | 31 | 1013.7 |
| 20260906091625 | 68 | 321 | 4.0 | 9.0 | 0.00 | 0.00 | 0.00 | 31 | 1013.7 |
| 20260906090615 | 68 | 302 | 6.0 | 10.0 | 0.00 | 0.00 | 0.00 | 30 | 1013.5 |
| 20260906085637 | 68 | 311 | 9.0 | 11.0 | 0.00 | 0.00 | 0.00 | 30 | 1013.6 |
| 20260906084612 | 69 | 317 | 9.0 | 10.0 | 0.00 | 0.00 | 0.00 | 29 | 1013.4 |
| 20260906083622 | 69 | 314 | 5.0 | 9.0 | 0.00 | 0.00 | 0.00 | 28 | 1013.5 |
| 20260906082612 | 70 | 297 | 5.0 | 8.0 | 0.00 | 0.00 | 0.00 | 28 | 1013.4 |
| 20260906081621 | 71 | 298 | 8.0 | 11.0 | 0.00 | 0.00 | 0.00 | 28 | 1013.5 |
| 20260906080616 | 71 | 296 | 4.0 | 11.0 | 0.00 | 0.00 | 0.00 | 27 | 1013.4 |
| 20260906075640 | 70 | 292 | 9.0 | 12.0 | 0.00 | 0.00 | 0.00 | 29 | 1013.4 |
| 20260906074629 | 69 | 309 | 9.0 | 12.0 | 0.00 | 0.00 | 0.00 | 30 | 1013.4 |
| 20260906073619 | 69 | 304 | 9.0 | 12.0 | 0.00 | 0.00 | 0.00 | 29 | 1013.4 |
| 20260906072613 | 70 | 314 | 8.0 | 10.0 | 0.00 | 0.00 | 0.00 | 29 | 1013.4 |
| 20260906071622 | 70 | 320 | 9.0 | 10.0 | 0.00 | 0.00 | 0.00 | 29 | 1013.4 |
| 20260906070612 | 72 | 301 | 4.0 | 10.0 | 0.00 | 0.00 | 0.00 | 28 | 1013.4 |
| 20260906065615 | 73 | 317 | 5.0 | 6.0 | 0.00 | 0.00 | 0.00 | 28 | 1013.3 |
| 20260906064624 | 71 | 182 | 3.0 | 5.0 | 0.00 | 0.00 | 0.00 | 27 | 1013.3 |
| 20260906063618 | 72 | 246 | 2.0 | 8.0 | 0.00 | 0.00 | 0.00 | 26 | 1013.2 |
| 20260906062650 | 72 | 323 | 3.0 | 4.0 | 0.00 | 0.00 | 0.00 | 27 | 1013.1 |
| 20260906061619 | 72 | 323 | 0.0 | 0.0 | 0.00 | 0.00 | 0.00 | 26 | 1013.1 |
| 20260906060619 | 73 | 323 | 1.0 | 4.0 | 0.00 | 0.00 | 0.00 | 27 | 1013.1 |
| 20260906055618 | 74 | 205 | 0.0 | 1.0 | 0.00 | 0.00 | 0.00 | 26 | 1013.1 |
| 20260906054630 | 75 | 205 | 0.0 | 4.0 | 0.00 | 0.00 | 0.00 | 25 | 1013.1 |
| 20260906053621 | 75 | 103 | 0.0 | 3.0 | 0.00 | 0.00 | 0.00 | 24 | 1013.1 |
| 20260906052613 | 76 | 102 | 0.0 | 3.0 | 0.00 | 0.00 | 0.00 | 23 | 1013.1 |
| 20260906051627 | 76 | 102 | 1.0 | 3.0 | 0.00 | 0.00 | 0.00 | 22 | 1013.1 |
| 20260906050618 | 77 | 100 | 0.0 | 6.0 | 0.00 | 0.00 | 0.00 | 21 | 1013.0 |
| 20260906045622 | 77 | 100 | 4.0 | 8.0 | 0.00 | 0.00 | 0.00 | 20 | 1013.0 |
| 20260906044614 | 76 | 84 | 4.0 | 8.0 | 0.00 | 0.00 | 0.00 | 20 | 1013.0 |
| 20260906043628 | 72 | 98 | 4.0 | 7.0 | 0.00 | 0.00 | 0.00 | 22 | 1012.9 |
| 20260906042620 | 72 | 67 | 4.0 | 6.0 | 0.00 | 0.00 | 0.00 | 22 | 1012.9 |
| 20260906041612 | 72 | 69 | 6.0 | 8.0 | 0.00 | 0.00 | 0.00 | 22 | 1012.8 |
| 20260906040627 | 73 | 317 | 4.0 | 8.0 | 0.00 | 0.00 | 0.00 | 21 | 1012.7 |
| 20260906035630 | 77 | 136 | 0.0 | 5.0 | 0.00 | 0.00 | 0.00 | 19 | 1012.7 |
| 20260906034621 | 77 | 103 | 6.0 | 11.0 | 0.00 | 0.00 | 0.00 | 18 | 1012.5 |
| 20260906033630 | 77 | 38 | 7.0 | 10.0 | 0.00 | 0.00 | 0.00 | 17 | 1012.5 |
| 20260906032624 | 77 | 37 | 8.0 | 12.0 | 0.00 | 0.00 | 0.00 | 18 | 1012.4 |
| 20260906031614 | 76 | 29 | 9.0 | 10.0 | 0.00 | 0.00 | 0.00 | 18 | 1012.4 |
| 20260906030623 | 76 | 30 | 9.0 | 11.0 | 0.00 | 0.00 | 0.00 | 18 | 1012.3 |
| 20260906025625 | 76 | 30 | 8.0 | 10.0 | 0.00 | 0.00 | 0.00 | 18 | 1012.3 |
| 20260906024618 | 77 | 29 | 9.0 | 10.0 | 0.00 | 0.00 | 0.00 | 18 | 1012.1 |
| 20260906023627 | 77 | 30 | 9.0 | 11.0 | 0.00 | 0.00 | 0.00 | 18 | 1012.1 |
| 20260906022616 | 77 | 34 | 9.0 | 11.0 | 0.00 | 0.00 | 0.00 | 19 | 1012.0 |
| 20260906021625 | 77 | 36 | 9.0 | 10.0 | 0.00 | 0.00 | 0.00 | 19 | 1012.1 |
| 20260906020639 | 77 | 38 | 8.0 | 10.0 | 0.00 | 0.00 | 0.00 | 20 | 1012.1 |
| 20260906015621 | 77 | 39 | 8.0 | 10.0 | 0.00 | 0.00 | 0.00 | 20 | 1012.1 |
| 20260906014612 | 78 | 46 | 7.0 | 9.0 | 0.00 | 0.00 | 0.00 | 21 | 1012.2 |
| 20260906013622 | 81 | 86 | 6.0 | 7.0 | 0.00 | 0.00 | 0.00 | 20 | 1012.4 |
| 20260906012615 | 84 | 223 | 3.0 | 4.0 | 0.00 | 0.00 | 0.00 | 18 | 1012.5 |
| 20260906011625 | 84 | 226 | 2.0 | 3.0 | 0.00 | 0.00 | 0.00 | 18 | 1012.6 |
| 20260906010614 | 84 | 226 | 0.0 | 4.0 | 0.00 | 0.00 | 0.00 | 19 | 1012.6 |
| 20260906005616 | 83 | 226 | 2.0 | 6.0 | 0.00 | 0.00 | 0.00 | 21 | 1012.7 |
| 20260906004650 | 84 | 223 | 5.0 | 9.0 | 0.00 | 0.00 | 0.00 | 18 | 1012.6 |
| 20260906003641 | 83 | 231 | 4.0 | 7.0 | 0.00 | 0.00 | 0.00 | 19 | 1012.7 |
| 20260906002630 | 84 | 227 | 6.0 | 11.0 | 0.00 | 0.00 | 0.00 | 18 | 1012.7 |
| 20260906001621 | 84 | 234 | 7.0 | 13.0 | 0.00 | 0.00 | 0.00 | 19 | 1012.8 |
| 20260906000617 | 84 | 227 | 7.0 | 12.0 | 0.00 | 0.00 | 0.00 | 18 | 1012.8 |
| 20260905235620 | 84 | 237 | 7.0 | 12.0 | 0.00 | 0.00 | 0.00 | 17 | 1012.9 |